User: anonymous   Login
Location: Taipo
(41.0000°S, 175.9500°E)
Time: 22:18:39
(UTC+00:00)
Language:

NOAA 12 - Orbit

View from above orbital plane
View from above orbital plane
View from above satellite
View from above satellite

Ground track
Ground track

The orbit data is extracted from the following two-line orbital elements,

1 21263U 91032A   24170.60910000  .00000169  00000-0  88447-4 0  9990
2 21263  98.5571 161.6925 0013740   3.0241 357.1020 14.26322217721082
Epoch (UTC): 18 June 2024 14:37:06
Eccentricity: 0.0013740
inclination: 98.5571°
perigee height: 794 km
apogee height: 814 km
right ascension of ascending node: 161.6925°
argument of perigee: 3.0241°
revolutions per day: 14.26322217
mean anomaly at epoch: 357.1020°
orbit number at epoch: 72108

The dashed part of the orbit path shows where the satellite is in the earth's shadow,  

DLR